Regional Weather Roundup
Issued by NWS

Home | Current Version | Previous Version | Graphics & Text | Print | Product List | Glossary On
Versions: 1 2 3 4 5 6 7 8 9 10 11 12 13 14 15 16 17 18 19 20 21 22 23 24 25 26 27
000
ASUS45 KSLC 030210
RWRUT

UTAH REGIONAL WEATHER ROUNDUP
NATIONAL WEATHER SERVICE SALT LAKE CITY UT
700 PM MST FRI DEC 02 2016

UTZ001>011-023>025-030300-

NORTHERN UTAH

CITY           SKY/WX    TMP DP  RH WIND       PRES   REMARKS
BRIGHAM CITY     N/A     31  20  64 W8        30.29R WCI  23
HILL AFB       CLEAR     25  16  68 SE9       30.25R WCI  15
LOGAN          CLEAR    N/A N/A N/A N7        30.28R
OGDEN          CLEAR     25  18  74 S6        30.26R WCI  18
SALT LAKE CITY CLEAR     31  23  72 NW3       30.26S
TOOELE VALLEY  CLEAR     18  16  93 S8        30.28R WCI   7
WENDOVER       CLEAR     30  14  51 NE6       30.30R WCI  24
HEBER CITY     CLEAR     14  10  85 CALM      30.21R
WEST JORDAN    CLEAR     28  23  82 W7        30.25F WCI  20

$$

UTZ011>015-024>027-030300-

CENTRAL/NORTHEAST UTAH

CITY           SKY/WX    TMP DP  RH WIND       PRES   REMARKS
PROVO AIRPORT  CLEAR     30  22  72 N9        30.26R WCI  22
MOAB/CANYONLAN MOCLDY    35  15  44 NE6       30.13R WCI  30
DELTA          CLEAR     27  19  74 N7        30.25R WCI  19
PRICE          CLEAR     26  12  55 N7        30.15R WCI  18
ROOSEVELT      CLEAR     27  18  69 W6        30.22R WCI  20
VERNAL         CLEAR     26  13  57 E7        30.19S WCI  18

$$

UTZ013>016-019>022-027-030300-

SOUTHERN UTAH

CITY           SKY/WX    TMP DP  RH WIND       PRES   REMARKS
BRYCE CANYON   NOT AVBL
CEDAR CITY     CLEAR     24  17  74 N10       30.16S WCI  14
MILFORD        CLEAR     26  19  74 N10       30.22R WCI  16
ST GEORGE      CLEAR     43  14  31 NE21G28   30.16R
HANKSVILLE     CLOUDY    36  14  41 NW8       30.17S WCI  29
KANAB          PTCLDY    36  16  44 N17       30.14R WCI  25
BLANDING       CLOUDY    32  20  61 NW5       30.14R WCI  27

$$

REGIONAL REPORTS     COLORADO/ARIZONA

CITY           SKY/WX    TMP DP  RH WIND       PRES   REMARKS
CRAIG, CO      CLOUDY    23  16  74 SW3       30.18R
GRAND JUNCTION CLOUDY    34  19  54 NE13      30.14R WCI  25
RIFLE, CO      CLOUDY    30  23  75 W5        30.16R WCI  25
MONTROSE, CO   LGT SNOW  29  25  85 CALM      30.16R FOG
CORTEZ, CO     CLOUDY    33  25  72 CALM      30.07R
COLORADO CITY  MOCLDY    34  21  60 NW5       30.13R WCI  30
PAGE, AZ       CLEAR     40  13  33 NE3       30.09R
GRAND CANYON   CLOUDY    30  17  58 NE7       30.06R WCI  23
KINGMAN, AZ    CLEAR     41  13  31 N15       30.05R
FLAGSTAFF, AZ  CLOUDY    28  19  69 NE8       30.00R WCI  20

$$

REGIONAL REPORTS    NEVADA/IDAHO/WYOMING

CITY           SKY/WX    TMP DP  RH WIND       PRES   REMARKS
LAS VEGAS, NV  PTCLDY    50  10  20 N13       30.15R
ELY, NY        CLEAR     20  11  68 N10       30.21S WCI   9
ELKO, NV       PTCLDY    22  15  75 SW6       30.30R WCI  14
POCATELLO, ID  CLOUDY    26  21  81 S7        30.28F WCI  18
BURLEY, ID     PTCLDY    26  21  81 W5        30.29R WCI  20
FORT BRIDGER,    N/A     15   8  76 W7        30.20R WCI   5
EVANSTON, WY   CLOUDY    17   9  70 N6        30.18R WCI   9
ROCK SPRINGS,  CLEAR     14  10  84 SW9       30.16R WCI   2

$$




USA.gov is the U.S. government's official web portal to all federal, state and local government web resources and services.